FW7253 Weather Reports


time (UTC)temp
F
wind
direction
speed
knots
gust
knots
rain 1hr
in
rain 24hr
in
rain mn
in
humidity
%
barometer
mb
20260901092536 58 232 1.7 4.3 0.00 0.00 0.00 88 1009.9
20260901092036 58 222 2.6 3.5 0.00 0.00 0.00 90 1010.0
20260901091547 58 0 0.9 2.6 0.00 0.00 0.00 91 1010.0
20260901091034 58 345 0.9 2.6 0.00 0.00 0.00 93 1009.9
20260901090535 58 314 0.9 2.6 0.00 0.00 0.00 94 1009.9
20260901090101 58 311 0.9 2.6 0.00 0.00 0.00 95 1009.9
20260901085532 57 0 0.0 2.6 0.00 0.00 0.00 95 1009.9
20260901085033 57 0 0.0 2.6 0.00 0.00 0.00 95 1009.9
20260901084559 57 353 0.9 2.6 0.00 0.00 0.00 96 1009.8
20260901084035 57 323 0.9 2.6 0.00 0.00 0.00 96 1009.9
20260901083537 57 318 0.9 1.7 0.00 0.00 0.00 96 1009.9
20260901083058 57 325 0.0 1.7 0.00 0.00 0.00 96 1009.8
20260901082534 57 0 0.0 2.6 0.00 0.00 0.00 96 1009.9
20260901082036 56 345 0.9 2.6 0.00 0.00 0.00 96 1009.8
20260901081556 56 307 0.9 2.6 0.00 0.00 0.00 96 1010.0
20260901081037 56 319 0.9 2.6 0.00 0.00 0.00 96 1009.9
20260901080531 56 296 1.7 2.6 0.00 0.00 0.00 96 1009.8
20260901080108 55 0 0.0 0.0 0.00 0.00 0.00 96 1009.9
20260901075535 55 0 0.0 0.0 0.00 0.00 0.00 96 1009.8
20260901075035 55 0 0.0 0.0 0.00 0.00 0.00 96 1009.8
20260901074600 55 0 0.0 0.0 0.00 0.00 0.00 96 1009.8
20260901074039 54 0 0.0 0.0 0.00 0.00 0.00 96 1009.9
20260901073535 54 0 0.0 0.0 0.00 0.00 0.00 96 1009.8
20260901073051 54 0 0.0 0.0 0.00 0.00 0.00 96 1009.7
20260901072535 54 0 0.0 0.0 0.00 0.00 0.00 96 1009.8
20260901072032 54 0 0.0 1.7 0.00 0.00 0.00 96 1009.7
20260901071546 54 0 0.0 2.6 0.00 0.00 0.00 96 1009.7
20260901071031 53 304 0.9 2.6 0.00 0.00 0.00 96 1009.7
20260901070538 53 0 0.0 2.6 0.00 0.00 0.00 96 1009.7
20260901070052 53 0 0.0 3.5 0.00 0.00 0.00 96 1009.5
20260901065535 53 26 0.9 5.2 0.00 0.00 0.00 96 1009.5
20260901065035 53 356 2.6 6.1 0.00 0.00 0.00 96 1009.5
20260901064549 52 354 3.5 6.1 0.00 0.00 0.00 96 1009.5
20260901064035 52 343 3.5 6.1 0.00 0.00 0.00 96 1009.5
20260901063534 53 347 3.5 6.1 0.00 0.00 0.00 96 1009.5
20260901063053 52 345 3.5 6.1 0.00 0.00 0.00 96 1009.5
20260901062531 52 336 2.6 5.2 0.00 0.00 0.00 96 1009.4
20260901062032 52 356 3.5 5.2 0.00 0.00 0.00 96 1009.4
20260901061548 52 340 3.5 6.1 0.00 0.00 0.00 96 1009.5
20260901061031 52 336 2.6 6.1 0.00 0.00 0.00 96 1009.4
20260901060532 52 6 3.5 6.1 0.00 0.00 0.00 96 1009.4
20260901060051 52 349 1.7 5.2 0.00 0.00 0.00 96 1009.3
20260901055531 52 341 2.6 5.2 0.00 0.00 0.00 96 1009.2
20260901055031 52 360 2.6 5.2 0.00 0.00 0.00 96 1009.2
20260901054546 52 359 3.5 5.2 0.00 0.00 0.00 96 1009.2
20260901054032 52 340 1.7 3.5 0.00 0.00 0.00 96 1009.2
20260901053534 52 345 2.6 3.5 0.00 0.00 0.00 96 1009.2
20260901053100 52 351 0.0 2.6 0.00 0.00 0.00 96 1009.1
20260901052533 51 313 0.0 2.6 0.00 0.00 0.00 96 1009.0
20260901052031 51 0 0.0 2.6 0.00 0.00 0.00 96 1009.0
20260901051551 51 352 0.0 1.7 0.00 0.00 0.00 96 1009.1
20260901051031 51 113 0.0 0.9 0.00 0.00 0.00 96 1008.9
20260901050531 51 0 0.0 1.7 0.00 0.00 0.00 96 1009.0
20260901050057 51 356 0.0 1.7 0.00 0.00 0.00 96 1009.0
20260901045531 51 359 0.0 1.7 0.00 0.00 0.00 96 1008.9
20260901045030 51 335 0.0 0.9 0.00 0.00 0.00 96 1009.0
20260901044552 50 0 0.0 0.9 0.00 0.00 0.00 96 1008.8
20260901044031 50 0 0.0 0.9 0.00 0.00 0.00 96 1008.8
20260901043532 50 0 0.0 1.7 0.00 0.00 0.00 96 1008.7
20260901043052 50 0 0.0 1.7 0.00 0.00 0.00 96 1008.6
20260901042532 50 0 0.0 2.6 0.00 0.00 0.00 96 1008.7
20260901042037 50 16 0.9 4.3 0.00 0.00 0.00 96 1008.6
20260901041613 50 79 0.9 4.3 0.00 0.00 0.00 96 1008.6
20260901041031 50 348 2.6 4.3 0.00 0.00 0.00 96 1008.6
20260901040535 49 17 0.0 2.6 0.00 0.00 0.00 96 1008.6
20260901040136 49 0 0.0 0.0 0.00 0.00 0.00 96 1008.6
20260901035536 49 0 0.0 0.0 0.00 0.00 0.00 96 1008.7
20260901035032 49 0 0.0 0.0 0.00 0.00 0.00 96 1008.7
20260901034550 49 0 0.0 0.0 0.00 0.00 0.00 96 1008.6
20260901034030 49 0 0.0 0.0 0.00 0.00 0.00 96 1008.7
20260901033533 48 0 0.0 0.0 0.00 0.00 0.00 96 1008.7
20260901033057 48 0 0.0 0.0 0.00 0.00 0.00 96 1008.5
20260901032531 48 0 0.0 0.0 0.00 0.00 0.00 96 1008.5
20260901032031 48 0 0.0 0.0 0.00 0.00 0.00 96 1008.6
20260901031551 48 0 0.0 0.0 0.00 0.00 0.00 96 1008.6
20260901031032 48 0 0.0 0.0 0.00 0.00 0.00 96 1008.5
20260901030533 47 0 0.0 0.0 0.00 0.00 0.00 96 1008.4
20260901030049 47 0 0.0 0.0 0.00 0.00 0.00 96 1008.4
20260901025531 47 0 0.0 0.0 0.00 0.00 0.00 96 1008.3
20260901025033 47 0 0.0 0.0 0.00 0.00 0.00 96 1008.3
20260901024549 47 0 0.0 0.0 0.00 0.00 0.00 96 1008.2
20260901024033 47 0 0.0 0.0 0.00 0.00 0.00 96 1008.2
20260901023530 47 0 0.0 0.0 0.00 0.00 0.00 96 1008.2
20260901023057 47 0 0.0 0.0 0.00 0.00 0.00 96 1008.1
20260901022531 47 0 0.0 0.0 0.00 0.00 0.00 96 1008.1
20260901022031 47 0 0.0 0.0 0.00 0.00 0.00 96 1008.1
20260901021551 47 0 0.0 0.0 0.00 0.00 0.00 96 1008.0
20260901021031 47 0 0.0 0.0 0.00 0.00 0.00 96 1007.9
20260901020532 47 0 0.0 0.0 0.00 0.00 0.00 96 1008.0
20260901020048 47 0 0.0 0.0 0.00 0.00 0.00 96 1008.0
20260901015530 47 0 0.0 0.0 0.00 0.00 0.00 96 1007.9
20260901015031 47 0 0.0 0.0 0.00 0.00 0.00 95 1007.8
20260901014555 47 0 0.0 0.0 0.00 0.00 0.00 95 1007.7
20260901014031 47 0 0.0 0.0 0.00 0.00 0.00 95 1007.8
20260901013530 47 0 0.0 0.0 0.00 0.00 0.00 95 1007.8
20260901013057 47 0 0.0 0.0 0.00 0.00 0.00 95 1007.8
20260901012531 47 0 0.0 0.0 0.00 0.00 0.00 95 1007.9
20260901012031 48 0 0.0 0.0 0.00 0.00 0.00 95 1007.7
20260901011547 48 0 0.0 0.0 0.00 0.00 0.00 95 1007.8
20260901011030 48 0 0.0 0.0 0.00 0.00 0.00 95 1007.7
20260901010534 48 0 0.0 0.0 0.00 0.00 0.00 95 1007.7
20260901010108 48 0 0.0 0.0 0.00 0.00 0.00 95 1007.7
20260901005530 48 0 0.0 0.0 0.00 0.00 0.00 95 1007.7
20260901005032 48 0 0.0 0.0 0.00 0.00 0.00 95 1007.7
20260901004550 48 0 0.0 0.0 0.00 0.00 0.00 95 1007.7
20260901004031 48 0 0.0 0.0 0.00 0.00 0.00 95 1007.7
20260901003531 48 0 0.0 0.0 0.00 0.00 0.00 95 1007.5
20260901003051 48 0 0.0 0.0 0.00 0.00 0.00 95 1007.7
20260901002531 49 0 0.0 0.0 0.00 0.00 0.00 95 1007.7
20260901002031 49 0 0.0 0.0 0.00 0.00 0.00 95 1007.6
20260901001547 49 0 0.0 0.0 0.00 0.00 0.00 95 1007.6
20260901001031 50 0 0.0 0.0 0.00 0.00 0.00 95 1007.7
20260901000534 50 0 0.0 0.0 0.00 0.00 0.00 95 1007.6
20260901000046 50 0 0.0 0.0 0.00 0.00 0.00 95 1007.7
20260831235534 50 0 0.0 0.0 0.00 0.00 0.00 95 1007.7
20260831235034 49 0 0.0 0.0 0.00 0.00 0.00 95 1007.7
20260831234553 49 0 0.0 0.0 0.00 0.00 0.00 95 1007.7
20260831234034 49 0 0.0 0.0 0.00 0.00 0.00 95 1007.7
20260831233539 49 0 0.0 0.0 0.00 0.00 0.00 95 1007.6
20260831233048 49 0 0.0 0.0 0.00 0.00 0.00 94 1007.7
20260831232534 50 0 0.0 0.0 0.00 0.00 0.00 95 1007.7
20260831232034 50 0 0.0 0.0 0.00 0.00 0.00 95 1007.6
20260831231545 50 0 0.0 0.0 0.00 0.00 0.00 95 1007.7
20260831231038 50 0 0.0 0.0 0.00 0.00 0.00 95 1007.8
20260831230534 50 0 0.0 0.0 0.00 0.00 0.00 94 1007.7
20260831230109 50 0 0.0 0.0 0.00 0.00 0.00 94 1007.8
20260831225535 51 0 0.0 0.0 0.00 0.00 0.00 94 1007.8
20260831225035 51 0 0.0 0.0 0.00 0.00 0.00 94 1007.7
20260831224547 51 0 0.0 0.0 0.00 0.00 0.00 94 1007.8
20260831224035 51 0 0.0 0.0 0.00 0.00 0.00 94 1007.7
20260831223534 51 0 0.0 0.0 0.00 0.00 0.00 94 1007.8
20260831223052 51 0 0.0 0.0 0.00 0.00 0.00 94 1007.7
20260831222535 51 0 0.0 0.0 0.00 0.00 0.00 94 1007.7
20260831222035 51 0 0.0 0.0 0.00 0.00 0.00 94 1007.8
20260831221557 51 0 0.0 0.0 0.00 0.00 0.00 94 1007.7
20260831221034 51 0 0.0 0.0 0.00 0.00 0.00 94 1007.7
20260831220535 52 0 0.0 0.0 0.00 0.00 0.00 93 1007.7
20260831220051 52 0 0.0 0.0 0.00 0.00 0.00 93 1007.7
20260831215537 52 0 0.0 0.0 0.00 0.00 0.00 93 1007.7
20260831215035 53 0 0.0 0.0 0.00 0.00 0.00 93 1007.6
20260831214607 53 0 0.0 0.0 0.00 0.00 0.00 93 1007.6
20260831214034 53 0 0.0 0.0 0.00 0.00 0.00 93 1007.5
20260831213534 53 0 0.0 0.0 0.00 0.00 0.00 93 1007.6
20260831213052 53 0 0.0 0.0 0.00 0.00 0.00 93 1007.4
20260831212532 53 0 0.0 0.0 0.00 0.00 0.00 93 1007.5
20260831212034 53 0 0.0 0.0 0.00 0.00 0.00 93 1007.4
20260831211549 53 0 0.0 0.0 0.00 0.00 0.00 92 1007.3
20260831211034 53 0 0.0 0.0 0.00 0.00 0.00 92 1007.4
20260831210530 53 0 0.0 0.0 0.00 0.00 0.00 92 1007.3
20260831210056 53 0 0.0 0.0 0.00 0.00 0.00 92 1007.3
20260831205623 54 0 0.0 0.0 0.00 0.00 0.00 92 1007.3
20260831205034 54 0 0.0 0.0 0.00 0.00 0.00 92 1007.3
20260831204558 54 0 0.0 0.0 0.00 0.00 0.00 92 1007.1
20260831204034 54 0 0.0 0.0 0.00 0.00 0.00 91 1007.2
20260831203536 54 0 0.0 0.0 0.00 0.00 0.00 91 1007.1
20260831203049 54 0 0.0 0.0 0.00 0.00 0.00 91 1007.1
20260831202535 55 0 0.0 0.0 0.00 0.00 0.00 91 1007.1
20260831202034 55 0 0.0 0.0 0.00 0.00 0.00 91 1007.1
20260831201557 55 0 0.0 0.0 0.00 0.00 0.00 91 1007.2
20260831201034 55 0 0.0 0.0 0.00 0.00 0.00 91 1007.2
20260831200535 55 0 0.0 0.0 0.00 0.00 0.00 91 1007.1
20260831200105 55 0 0.0 0.0 0.00 0.00 0.00 90 1007.1
20260831195534 55 0 0.0 0.0 0.00 0.00 0.00 90 1007.2
20260831195033 56 0 0.0 0.9 0.00 0.00 0.00 90 1007.2
20260831194627 56 0 0.0 0.9 0.00 0.00 0.00 90 1007.0
20260831194034 56 0 0.0 3.5 0.00 0.00 0.00 90 1007.1
20260831193535 56 0 0.0 3.5 0.00 0.00 0.00 90 1007.1
20260831193048 56 0 0.0 0.0 0.00 0.00 0.00 89 1007.0
20260831192534 56 0 0.0 0.0 0.00 0.00 0.00 89 1007.1
20260831192034 56 0 0.0 0.0 0.00 0.00 0.00 89 1007.0
20260831191556 57 0 0.0 0.0 0.00 0.00 0.00 88 1006.9
20260831191040 57 0 0.0 1.7 0.00 0.00 0.00 88 1006.8
20260831190535 57 0 0.0 1.7 0.00 0.00 0.00 88 1006.9
20260831185534 57 103 0.0 0.9 0.00 0.00 0.00 87 1006.7
20260831185034 58 0 0.0 0.9 0.00 0.00 0.00 87 1006.7
20260831184550 58 0 0.0 1.7 0.00 0.00 0.00 87 1006.7
20260831184030 58 0 0.0 1.7 0.00 0.00 0.00 87 1006.7
20260831183536 58 129 0.9 2.6 0.00 0.00 0.00 86 1006.7
20260831183106 58 0 0.0 2.6 0.00 0.00 0.00 86 1006.6
20260831182535 59 157 0.0 1.7 0.00 0.00 0.00 85 1006.5
20260831182035 59 149 0.0 1.7 0.00 0.00 0.00 85 1006.5
20260831181557 59 195 0.0 2.6 0.00 0.00 0.00 85 1006.4
20260831181034 59 186 0.0 2.6 0.00 0.00 0.00 84 1006.4
20260831180534 60 136 0.9 2.6 0.00 0.00 0.00 83 1006.3
20260831180111 60 155 0.9 3.5 0.00 0.00 0.00 83 1006.4
20260831175531 60 105 0.9 6.1 0.00 0.00 0.00 83 1006.3
20260831175034 60 172 0.9 7.0 0.00 0.00 0.00 82 1006.3
20260831174552 61 195 1.7 7.0 0.00 0.00 0.00 81 1006.3
20260831174034 61 178 2.6 7.0 0.00 0.00 0.00 80 1006.3
20260831173538 62 164 0.9 6.1 0.00 0.00 0.00 79 1006.3
20260831173046 62 150 2.6 6.1 0.00 0.00 0.00 78 1006.3
20260831172534 62 157 2.6 6.1 0.00 0.00 0.00 77 1006.1
20260831172034 63 215 1.7 6.1 0.00 0.00 0.00 77 1006.2
20260831171547 63 130 1.7 7.0 0.00 0.00 0.00 76 1006.2
20260831171032 64 153 1.7 7.0 0.00 0.00 0.00 74 1006.1
20260831170532 64 248 1.7 4.3 0.00 0.00 0.00 74 1006.1
20260831170052 64 198 1.7 7.0 0.00 0.00 0.00 73 1006.2
20260831165534 64 253 3.5 7.0 0.00 0.00 0.00 72 1006.1
20260831165032 64 203 1.7 7.0 0.00 0.00 0.00 72 1006.1
20260831164550 65 126 1.7 7.0 0.00 0.00 0.00 70 1006.0
20260831164035 65 143 2.6 7.0 0.00 0.00 0.00 69 1005.9
20260831163532 65 125 0.9 5.2 0.00 0.00 0.00 69 1006.0
20260831163049 65 95 1.7 6.1 0.00 0.00 0.00 68 1006.0
20260831162535 65 168 1.7 7.0 0.00 0.00 0.00 68 1005.9
20260831162033 66 178 4.3 7.0 0.00 0.00 0.00 68 1005.9
20260831161554 66 221 4.3 7.0 0.00 0.00 0.00 67 1005.9
20260831161031 66 194 3.5 6.1 0.00 0.00 0.00 67 1005.8
20260831160535 66 231 4.3 7.0 0.00 0.00 0.00 66 1005.8
20260831160050 66 162 4.3 7.8 0.00 0.00 0.00 65 1005.9
20260831155532 67 219 4.3 7.8 0.00 0.00 0.00 65 1005.8
20260831155035 67 220 2.6 7.0 0.00 0.00 0.00 66 1005.7
20260831154616 67 181 3.5 7.0 0.00 0.00 0.00 66 1005.8
20260831154034 67 149 2.6 8.7 0.00 0.00 0.00 65 1005.7
20260831153535 67 204 3.5 9.6 0.00 0.00 0.00 65 1005.7
20260831153058 67 147 4.3 9.6 0.00 0.00 0.00 66 1005.8
20260831152536 67 231 6.1 9.6 0.00 0.00 0.00 65 1005.8
20260831152032 68 72 2.6 9.6 0.00 0.00 0.00 65 1005.8
20260831151552 68 205 4.3 9.6 0.00 0.00 0.00 65 1005.7
20260831151033 68 223 3.5 9.6 0.00 0.00 0.00 63 1005.7
20260831150533 68 175 1.7 9.6 0.00 0.00 0.00 63 1005.5
20260831150058 69 180 3.5 8.7 0.00 0.00 0.00 61 1005.6
20260831145531 69 214 5.2 8.7 0.00 0.00 0.00 63 1005.5
20260831145031 69 167 5.2 8.7 0.00 0.00 0.00 62 1005.5
20260831144553 69 200 5.2 8.7 0.00 0.00 0.00 65 1005.5
20260831144032 68 207 4.3 9.6 0.00 0.00 0.00 65 1005.4
20260831143532 68 189 3.5 9.6 0.00 0.00 0.00 65 1005.5
20260831143049 69 206 4.3 9.6 0.00 0.00 0.00 64 1005.5
20260831142531 69 164 3.5 8.7 0.00 0.00 0.00 64 1005.4
20260831142031 69 217 5.2 8.7 0.00 0.00 0.00 64 1005.4
20260831141547 69 68 3.5 8.7 0.00 0.00 0.00 64 1005.4
20260831141033 69 169 4.3 7.8 0.00 0.00 0.00 64 1005.4
20260831140531 69 148 3.5 7.8 0.00 0.00 0.00 64 1005.4
20260831140053 69 110 2.6 7.8 0.00 0.00 0.00 66 1005.4
20260831135532 68 118 3.5 7.8 0.00 0.00 0.00 67 1005.4
20260831135032 68 121 2.6 8.7 0.00 0.00 0.00 68 1005.4
20260831134551 68 134 3.5 9.6 0.00 0.00 0.00 69 1005.4
20260831134032 68 94 4.3 11.3 0.00 0.00 0.00 67 1005.4
20260831133531 68 99 5.2 11.3 0.00 0.00 0.00 69 1005.4
20260831133049 68 147 4.3 9.6 0.00 0.00 0.00 68 1005.3
20260831132532 68 136 2.6 8.7 0.00 0.00 0.00 68 1005.3
20260831132032 68 119 3.5 8.7 0.00 0.00 0.00 66 1005.1
20260831131546 69 106 3.5 8.7 0.00 0.00 0.00 64 1005.1
20260831131035 70 156 2.6 7.0 0.00 0.00 0.00 65 1005.2
20260831130532 70 229 2.6 9.6 0.00 0.00 0.00 67 1005.0
20260831130101 69 92 4.3 9.6 0.00 0.00 0.00 67 1004.9
20260831125533 69 160 3.5 7.8 0.00 0.00 0.00 67 1005.1
20260831125032 69 103 4.3 8.7 0.00 0.00 0.00 68 1005.0
20260831124551 69 122 5.2 8.7 0.00 0.00 0.00 67 1005.1
20260831124034 69 110 2.6 8.7 0.00 0.00 0.00 67 1005.0
20260831123534 69 135 2.6 8.7 0.00 0.00 0.00 68 1005.0
20260831123047 69 64 2.6 6.1 0.00 0.00 0.00 69 1005.0
20260831122532 68 141 1.7 6.1 0.00 0.00 0.00 68 1005.1
20260831122034 68 98 3.5 6.1 0.00 0.00 0.00 69 1005.0
20260831121551 68 145 2.6 6.1 0.00 0.00 0.00 68 1005.0
20260831121034 68 110 1.7 6.1 0.00 0.00 0.00 69 1005.0
20260831120533 68 161 3.5 6.1 0.00 0.00 0.00 67 1005.0
20260831120051 68 110 1.7 4.3 0.00 0.00 0.00 67 1005.0
20260831115531 68 0 0.9 3.5 0.00 0.00 0.00 65 1004.9
20260831115031 68 196 0.9 2.6 0.00 0.00 0.00 67 1004.9
20260831114548 68 165 0.9 4.3 0.00 0.00 0.00 65 1005.0
20260831114034 69 162 1.7 6.1 0.00 0.00 0.00 65 1004.9
20260831113534 69 92 2.6 7.0 0.00 0.00 0.00 66 1004.9
20260831113054 68 127 3.5 7.0 0.00 0.00 0.00 68 1004.9
20260831112532 68 82 4.3 7.0 0.00 0.00 0.00 67 1004.8
20260831112039 69 123 0.9 5.2 0.00 0.00 0.00 63 1004.8
20260831111546 70 138 1.7 5.2 0.00 0.00 0.00 61 1004.7
20260831111031 70 107 2.6 5.2 0.00 0.00 0.00 60 1004.8
20260831110531 70 0 1.7 4.3 0.00 0.00 0.00 62 1004.7
20260831110051 69 329 1.7 4.3 0.00 0.00 0.00 62 1004.7
20260831105534 69 179 1.7 3.5 0.00 0.00 0.00 60 1004.7
20260831105032 69 219 0.9 3.5 0.00 0.00 0.00 63 1004.8
20260831104601 68 0 0.9 7.0 0.00 0.00 0.00 63 1004.9
20260831104032 68 48 1.7 7.0 0.00 0.00 0.00 60 1004.8
20260831103531 69 274 2.6 5.2 0.00 0.00 0.00 62 1004.8
20260831103048 69 209 2.6 6.1 0.00 0.00 0.00 62 1004.9
20260831102533 69 151 2.6 6.1 0.00 0.00 0.00 61 1004.8
20260831102036 69 207 1.7 6.1 0.00 0.00 0.00 60 1004.8
20260831101553 69 219 2.6 6.1 0.00 0.00 0.00 62 1004.9
20260831101032 70 143 0.9 4.3 0.00 0.00 0.00 60 1004.8
20260831100532 69 102 1.7 4.3 0.00 0.00 0.00 62 1004.9
20260831095534 69 237 1.7 4.3 0.00 0.00 0.00 61 1004.8
20260831095032 69 148 0.9 5.2 0.00 0.00 0.00 61 1004.8
20260831094547 69 142 2.6 5.2 0.00 0.00 0.00 62 1004.8
20260831094034 68 153 1.7 3.5 0.00 0.00 0.00 64 1004.8
20260831093532 68 194 0.9 2.6 0.00 0.00 0.00 64 1004.8
20260831093050 68 150 0.0 2.6 0.00 0.00 0.00 64 1004.8